Theta_e
294 294 294 294 294 293 293 292 292 293 294 295 295 296 296 296 296 297 298 300 300 301 302 304 306 309 307 307 308 306 306 306
293 294 294 294 294 293 292 292 291 292 294 294 295 296 296 296 296 298 300 300 301 301 302 302 305 308 309 309 308 306 306 306
292 293 293 293 293 293 292 292 291 292 294 295 295 295 295 296 297 299 300 301 301 301 302 303 307 309 309 308 308 306 305 305
289 290 291 292 292 292 292 291 291 292 293 294 294 294 295 296 297 299 299 300 300 302 301 304 306 309 310 308 307 307 306 306
292 292 291 292 292 292 292 292 291 292 293 293 293 294 295 296 299 299 299 299 301 301 302 304 306 309 309 307 306 307 307 307
289 289 290 291 291 292 293 291 291 291 292 292 294 295 295 297 297 298 299 302 303 300 302 304 306 308 309 308 307 307 307 306
288 288 288 287 291 292 290 290 291 291 291 293 294 294 294 296 297 298 301 301 302 301 303 303 303 300 301 305 307 306 305 303
290 288 288 289 290 291 291 291 291 290 291 292 293 293 294 295 296 299 299 300 300 301 301 301 302 298 298 299 306 304 303 301
290 289 289 288 287 290 291 291 290 290 291 292 292 291 293 293 296 298 299 298 298 299 299 300 299 296 297 297 303 301 300 299
290 289 288 287 288 290 289 289 289 289 290 291 292 291 291 293 296 297 297 296 297 296 297 298 297 295 296 300 300 298 296 297
290 288 287 287 288 288 287 288 288 288 289 291 292 292 292 292 293 292 293 291 289 290 292 291 295 294 296 299 297 294 290 291
289 288 286 286 285 285 286 286 287 287 288 288 290 291 293 292 291 291 289 289 289 288 288 290 291 295 295 296 296 291 288 288
287 286 286 285 285 285 285 285 285 286 286 286 287 288 290 290 289 288 288 287 286 286 285 285 288 290 295 295 295 294 290 289
283 283 282 282 283 283 283 283 283 284 282 284 285 285 286 288 287 286 287 286 286 286 286 285 284 286 293 293 293 292 288 287
279 280 280 281 282 281 280 283 284 285 284 284 285 286 285 286 287 288 287 287 286 286 286 284 285 285 286 287 288 287 287 289
278 276 276 277 279 279 283 284 284 284 284 284 285 286 285 285 286 288 288 289 288 288 288 287 286 287 288 288 287 288 288 287
277 276 277 275 276 276 281 283 283 284 284 285 285 285 286 286 286 289 290 290 292 291 290 286 289 290 290 290 290 289 288 286
274 273 273 274 274 272 280 283 283 283 284 285 285 285 285 285 286 286 287 290 291 291 291 291 289 290 290 290 290 289 289 287
269 269 269 271 272 275 272 283 283 284 285 284 285 286 286 286 286 286 286 286 286 289 290 290 290 290 290 290 289 286 288 286
264 265 266 270 272 273 272 277 277 283 284 285 285 285 286 286 286 286 286 286 286 285 288 287 290 290 290 290 286 286 286 286
Wind_Speed
7 8 7 7 7 7 7 8 7 7 6 5 5 4 3 2 1 1 0 2 3 2 3 3 4 3 5 4 6 9 4 5
7 7 8 6 7 7 7 7 7 7 6 6 5 5 3 3 2 2 1 1 2 2 2 3 3 3 4 5 6 8 7 6
7 8 7 8 7 7 6 7 7 6 6 6 5 4 4 3 4 2 2 1 2 2 1 1 3 2 4 4 6 9 9 8
4 5 7 7 7 7 7 7 6 6 6 6 6 6 5 5 4 3 2 2 3 2 2 2 3 4 4 4 5 7 8 9
6 5 4 6 7 7 7 7 7 6 6 6 6 6 5 5 4 3 2 2 3 3 3 0 2 2 5 5 5 7 7 6
5 6 4 4 4 5 6 7 7 7 6 6 5 5 5 5 4 3 3 3 3 2 3 2 2 2 6 6 5 7 7 6
6 6 5 4 4 5 6 6 6 7 7 6 5 6 5 5 4 3 3 3 4 3 2 4 2 5 9 8 6 7 7 7
5 5 5 5 5 5 6 6 6 6 6 6 6 6 6 4 5 4 4 3 4 3 1 4 3 9 9 10 5 6 8 7
5 5 6 6 5 3 3 6 6 6 5 5 6 6 6 4 5 4 3 4 3 3 2 3 2 9 11 11 7 5 5 6
4 4 6 6 6 4 4 4 5 6 6 5 5 5 5 5 5 3 4 3 3 2 3 4 3 5 12 8 6 7 6 5
5 4 5 7 6 6 4 2 3 3 5 6 7 6 6 6 5 1 2 4 3 3 1 4 3 2 9 10 4 5 4 4
5 6 6 6 6 6 5 5 4 2 4 5 5 8 6 5 4 4 2 4 4 4 2 3 4 4 4 12 6 5 4 4
6 7 6 7 6 7 7 6 5 1 2 4 3 3 5 6 3 4 3 2 3 4 2 0 2 4 5 5 8 10 7 6
6 5 4 5 4 4 5 5 4 4 3 2 1 1 2 4 5 2 5 2 2 2 2 2 0 1 6 8 9 10 4 4
2 8 8 7 6 3 3 4 4 4 3 1 0 1 1 2 3 4 3 4 3 3 3 2 2 2 1 2 5 10 7 12
7 4 3 6 7 6 6 4 5 4 3 2 1 3 1 2 3 4 4 4 4 5 4 4 5 5 6 6 6 6 9 11
5 6 6 5 6 6 6 6 4 4 3 2 2 1 4 3 2 5 8 9 9 7 6 3 3 11 13 12 10 11 21 6
5 5 5 6 6 4 6 6 5 4 4 2 2 2 4 3 3 4 3 8 9 11 11 10 6 13 16 15 15 20 14 3
4 4 5 5 6 7 4 6 6 6 6 2 4 4 5 4 4 4 4 4 3 6 7 9 10 13 15 16 15 11 10 4
3 5 5 7 8 6 5 5 4 6 6 4 3 3 3 3 4 5 4 5 3 1 4 4 9 11 14 21 6 10 10 8
Wind_Direction
189 186 194 191 185 187 184 179 179 181 176 176 182 182 181 143 216 187 255 294 315 352 17 16 8 4 102 90 110 116 109 100
197 193 189 183 185 190 187 180 180 180 176 167 183 176 192 186 229 217 166 254 289 313 28 13 30 321 119 114 111 115 115 112
196 185 182 187 187 195 191 186 185 183 172 175 177 181 194 215 234 179 137 275 241 292 349 19 48 171 135 126 122 125 124 119
42 194 199 195 191 195 194 197 184 182 174 182 179 185 201 222 221 165 164 246 272 260 293 71 59 123 135 129 121 123 128 132
7 352 301 236 202 195 199 186 178 185 178 188 192 194 201 212 200 161 154 221 284 278 278 285 94 144 137 131 123 120 122 121
356 350 347 336 279 225 206 178 168 174 186 195 200 203 205 189 189 167 164 195 262 283 259 291 117 157 147 137 139 128 124 122
360 357 348 320 306 254 210 191 169 171 194 187 193 186 203 201 185 191 195 183 242 224 226 275 175 167 153 141 138 133 131 132
355 348 330 329 307 273 214 162 173 177 193 187 182 187 183 206 195 186 201 190 206 184 171 271 177 141 139 131 125 136 130 134
354 351 358 338 335 305 180 162 162 173 196 194 170 188 174 182 228 183 185 185 169 189 171 270 261 145 131 119 112 103 115 127
356 1 357 354 339 30 96 136 165 183 187 191 179 176 191 173 221 207 170 167 154 189 187 179 266 181 142 126 128 131 133 131
23 8 10 355 360 48 49 116 187 228 217 192 172 179 211 184 187 224 201 150 135 133 114 137 161 217 152 131 128 133 132 120
50 46 15 356 13 44 46 31 318 241 213 238 214 158 210 180 163 137 237 143 148 146 133 132 159 165 193 144 144 149 137 143
58 48 15 9 22 25 28 339 345 323 231 199 239 207 163 172 183 142 193 192 158 150 126 37 175 166 173 179 144 156 153 171
62 53 21 10 29 40 341 346 8 38 16 333 34 334 159 171 156 119 150 173 233 179 174 183 232 221 192 177 166 153 128 142
75 48 26 1 9 37 352 5 14 46 3 306 225 84 23 297 171 156 185 177 187 219 199 190 195 195 184 159 144 126 112 125
52 54 14 341 355 352 12 11 17 14 349 313 244 239 183 233 236 199 211 191 187 213 192 177 217 216 180 174 174 166 149 130
31 18 357 359 348 346 2 7 2 357 348 335 287 222 251 215 250 263 250 212 224 219 200 207 202 168 181 183 177 161 152 134
356 324 326 344 343 326 351 351 343 329 324 308 289 259 252 226 211 237 274 252 249 239 231 210 199 189 186 182 172 165 169 176
325 332 333 343 334 320 326 340 332 318 306 280 282 261 250 245 240 232 221 229 241 240 236 228 222 200 194 175 149 170 201 183
347 346 348 335 316 310 326 316 289 311 299 281 250 253 252 246 248 240 232 236 223 165 209 213 218 200 189 175 182 188 194 196